Manchester, NH

8:22 AM EDT on August 19, 2017 (GMT -0400)
Manchester

Weather History for KMHT - September, 2013

Change the Weather History Date:

Tuesday, September 17, 2013

  Actual Average Record
Temperature  
Mean Temperature 56 °F 62 °F  
Max Temperature 64 °F 72 °F 88 °F (2015)
Min Temperature 41 °F 52 °F 27 °F (1948)
Degree Days  
Heating Degree Days 9    
Cooling Degree Days 0    
Growing Degree Days 6 (Base 50)    
Moisture  
Dew Point 38 °F    
Average Humidity 59    
Maximum Humidity 86    
Minimum Humidity 35    
Precipitation  
Precipitation 0.00 in 0.13 in 0.81 in (1977)
Month to date precipitation 2.06  
Year to date precipitation 31.32  
Snow  
Snow 0.00 in - - ()
Month to date snowfall  
Since 1 July snowfall  
Snow Depth -    
Sea Level Pressure  
Sea Level Pressure 30.36 in    
Wind  
Wind Speed 5 mph (NNW)    
Max Wind Speed 14 mph    
Max Gust Speed 18 mph    
Visibility 10 miles    
Events      
T = Trace of Precipitation, MM = Missing Value Source: NWS Daily Summary

Daily Weather History Graph

Daily Weather History Graph

Search for Another Location

Airport or City:

Trip Planner

Search our weather history database for the weather conditions in past years. The results will help you decide how hot, cold, wet, or windy it might be!

Date:

Astronomy

Sep. 17, 2013 Rise Set
Actual Time 6:27 AM EDT 6:51 PM EDT
Civil Twilight 5:59 AM EDT 7:20 PM EDT
Nautical Twilight 5:25 AM EDT 7:53 PM EDT
Astronomical Twilight 4:51 AM EDT 8:27 PM EDT
Moon 5:38 PM EDT (9/17) 4:16 AM EDT (9/17)
Length of Visible Light 13h 20m
Length of Day
12h 23m
Waxing Gibbous, 96% of the Moon is Illuminated
Sep 17
Waxing Gibbous
Sep 19
Full
Sep 26
Last Quarter
Oct 4
New
Oct 11
First Quarter

Hourly Weather History & Observations

Time (EDT) Temp. Windchill Dew Point Humidity Pressure Visibility Wind Dir Wind Speed Gust Speed Precip Events Conditions
12:53 AM 46.0 °F 42.5 °F 35.1 °F 66% 30.32 in 10.0 mi North 6.9 mph - N/A   Clear
1:53 AM 44.1 °F 42.5 °F 35.1 °F 71% 30.34 in 10.0 mi NNW 3.5 mph - N/A   Clear
2:53 AM 43.0 °F 41.3 °F 35.1 °F 74% 30.35 in 10.0 mi NNW 3.5 mph - N/A   Clear
3:53 AM 42.1 °F 40.2 °F 35.1 °F 76% 30.35 in 10.0 mi NNW 3.5 mph - N/A   Clear
4:53 AM 41.0 °F - 36.0 °F 82% 30.37 in 10.0 mi Calm Calm - N/A   Clear
5:53 AM 41.0 °F 39.0 °F 36.0 °F 82% 30.39 in 10.0 mi NNW 3.5 mph - N/A   Clear
6:53 AM 41.0 °F - 36.0 °F 82% 30.42 in 10.0 mi Calm Calm - N/A   Clear
7:53 AM 44.1 °F 40.8 °F 36.0 °F 73% 30.44 in 10.0 mi NNW 5.8 mph - N/A   Clear
8:53 AM 48.9 °F - 36.0 °F 61% 30.46 in 10.0 mi North 9.2 mph - N/A   Clear
9:53 AM 53.1 °F - 35.1 °F 50% 30.46 in 10.0 mi North 13.8 mph 18.4 mph N/A   Partly Cloudy
10:53 AM 55.9 °F - 34.0 °F 44% 30.46 in 10.0 mi NNE 9.2 mph 18.4 mph N/A   Partly Cloudy
11:53 AM 57.9 °F - 34.0 °F 41% 30.45 in 10.0 mi Variable 5.8 mph - N/A   Partly Cloudy
12:53 PM 61.0 °F - 34.0 °F 36% 30.44 in 10.0 mi North 10.4 mph - N/A   Partly Cloudy
1:53 PM 63.0 °F - 36.0 °F 37% 30.41 in 10.0 mi North 6.9 mph - N/A   Partly Cloudy
2:53 PM 63.0 °F - 35.1 °F 35% 30.39 in 10.0 mi Variable 4.6 mph - N/A   Clear
3:53 PM 63.0 °F - 37.0 °F 38% 30.38 in 10.0 mi Calm Calm - N/A   Clear
4:53 PM 64.0 °F - 36.0 °F 35% 30.36 in 10.0 mi Calm Calm - N/A   Clear
5:53 PM 63.0 °F - 36.0 °F 37% 30.37 in 10.0 mi WSW 3.5 mph - N/A   Clear
6:53 PM 61.0 °F - 39.9 °F 46% 30.35 in 10.0 mi SW 3.5 mph - N/A   Clear
7:53 PM 55.9 °F - 44.1 °F 64% 30.36 in 10.0 mi SSW 3.5 mph - N/A   Clear
8:53 PM 54.0 °F - 45.0 °F 72% 30.36 in 10.0 mi Calm Calm - N/A   Clear
9:53 PM 51.1 °F - 45.0 °F 80% 30.36 in 10.0 mi Calm Calm - N/A   Clear
10:45 PM 71.6 °F - 51.8 °F 50% 29.81 in 10.0 mi SW 6.9 mph - N/A   Clear
10:53 PM 50.0 °F - 46.0 °F 86% 30.36 in 10.0 mi Calm Calm - N/A   Clear
11:53 PM - - - N/A% 30.32 in 10.0 mi South 4.6 mph - N/A   Clear